Time,TemperatureF,DewpointF,PressureIn,WindDirection,WindDirectionDegrees,WindSpeedMPH,WindSpeedGustMPH,Humidity,HourlyPrecipIn,Conditions,Clouds,dailyrainin,SoftwareType,DateUTC
2013-05-23 00:19:00,67.6,66.0,29.94,West,264,2.0,4.0,93,0.00,,,0.00,weatherlink.com 1.10,2013-05-23 05:19:00,
2013-05-23 00:34:00,67.4,65.0,29.94,West,263,0.0,4.0,93,0.00,,,0.00,weatherlink.com 1.10,2013-05-23 05:34:00,
2013-05-23 00:49:00,67.6,66.0,29.94,West,281,2.0,5.0,93,0.00,,,0.00,weatherlink.com 1.10,2013-05-23 05:49:00,
2013-05-23 01:04:00,67.5,66.0,29.94,WNW,288,1.0,5.0,93,0.00,,,0.00,weatherlink.com 1.10,2013-05-23 06:04:00,
2013-05-23 01:19:00,67.4,65.0,29.94,West,278,5.0,6.0,93,0.00,,,0.00,weatherlink.com 1.10,2013-05-23 06:19:00,
2013-05-23 01:34:00,67.2,66.0,29.95,WNW,284,1.0,6.0,94,0.00,,,0.00,weatherlink.com 1.10,2013-05-23 06:34:00,
2013-05-23 01:49:00,66.9,65.0,29.95,WNW,287,1.0,5.0,94,0.00,,,0.00,weatherlink.com 1.10,2013-05-23 06:49:00,
2013-05-23 02:04:00,66.3,65.0,29.95,West,263,1.0,3.0,94,0.00,,,0.00,weatherlink.com 1.10,2013-05-23 07:04:00,
2013-05-23 02:19:00,65.8,65.0,29.95,West,278,2.0,2.0,96,0.00,,,0.00,weatherlink.com 1.10,2013-05-23 07:19:00,
2013-05-23 02:34:00,65.3,64.0,29.95,WSW,246,0.0,2.0,96,0.00,,,0.00,weatherlink.com 1.10,2013-05-23 07:34:00,
2013-05-23 02:49:00,64.9,64.0,29.96,West,273,0.0,1.0,96,0.00,,,0.00,weatherlink.com 1.10,2013-05-23 07:49:00,
2013-05-23 03:04:00,64.6,64.0,29.96,WSW,257,0.0,1.0,97,0.00,,,0.00,weatherlink.com 1.10,2013-05-23 08:04:00,
2013-05-23 03:19:00,64.3,64.0,29.97,WSW,256,0.0,2.0,97,0.00,,,0.00,weatherlink.com 1.10,2013-05-23 08:19:00,
2013-05-23 03:34:00,64.3,64.0,29.97,West,264,0.0,1.0,98,0.00,,,0.00,weatherlink.com 1.10,2013-05-23 08:34:00,
2013-05-23 03:49:00,64.7,64.0,29.98,WNW,282,1.0,3.0,98,0.00,,,0.00,weatherlink.com 1.10,2013-05-23 08:49:00,
2013-05-23 04:04:00,65.0,65.0,29.98,West,267,1.0,3.0,98,0.00,,,0.00,weatherlink.com 1.10,2013-05-23 09:04:00,
2013-05-23 04:19:00,65.2,65.0,29.98,West,263,2.0,2.0,98,0.00,,,0.00,weatherlink.com 1.10,2013-05-23 09:19:00,
2013-05-23 04:34:00,65.3,65.0,29.98,West,259,0.0,4.0,98,0.00,,,0.00,weatherlink.com 1.10,2013-05-23 09:34:00,
2013-05-23 04:49:00,65.2,65.0,29.98,West,269,1.0,4.0,98,0.00,,,0.00,weatherlink.com 1.10,2013-05-23 09:49:00,
2013-05-23 05:04:00,65.1,65.0,29.99,WNW,295,0.0,3.0,98,0.00,,,0.00,weatherlink.com 1.10,2013-05-23 10:04:00,
2013-05-23 05:19:00,64.9,64.0,30.00,West,259,0.0,3.0,98,0.00,,,0.00,weatherlink.com 1.10,2013-05-23 10:19:00,
2013-05-23 05:34:00,64.6,64.0,30.00,WSW,248,0.0,2.0,98,0.00,,,0.00,weatherlink.com 1.10,2013-05-23 10:34:00,
2013-05-23 05:49:00,64.5,64.0,30.01,West,266,1.0,1.0,98,0.00,,,0.00,weatherlink.com 1.10,2013-05-23 10:49:00,
2013-05-23 06:04:00,64.5,64.0,30.01,WSW,243,1.0,4.0,98,0.00,,,0.00,weatherlink.com 1.10,2013-05-23 11:04:00,
2013-05-23 06:19:00,64.5,64.0,30.01,West,281,0.0,3.0,98,0.00,,,0.00,weatherlink.com 1.10,2013-05-23 11:19:00,
2013-05-23 06:34:00,64.5,64.0,30.02,WNW,283,0.0,3.0,98,0.00,,,0.00,weatherlink.com 1.10,2013-05-23 11:34:00,
2013-05-23 06:49:00,64.8,64.0,30.02,West,275,0.0,2.0,98,0.00,,,0.00,weatherlink.com 1.10,2013-05-23 11:49:00,
2013-05-23 07:04:00,64.9,64.0,30.02,West,274,0.0,3.0,98,0.00,,,0.00,weatherlink.com 1.10,2013-05-23 12:04:00,
2013-05-23 07:19:00,65.9,65.0,30.02,West,266,0.0,3.0,98,0.00,,,0.00,weatherlink.com 1.10,2013-05-23 12:19:00,
2013-05-23 07:34:00,68.0,67.0,30.02,SSE,155,0.0,2.0,96,0.00,,,0.00,weatherlink.com 1.10,2013-05-23 12:34:00,
2013-05-23 07:50:00,69.6,67.0,30.02,WSW,257,0.0,3.0,90,0.00,,,0.00,weatherlink.com 1.10,2013-05-23 12:50:00,
2013-05-23 08:05:00,70.7,66.0,30.02,NW,321,2.0,5.0,86,0.00,,,0.00,weatherlink.com 1.10,2013-05-23 13:05:00,
2013-05-23 08:20:00,71.0,67.0,30.02,WNW,301,2.0,6.0,86,0.00,,,0.00,weatherlink.com 1.10,2013-05-23 13:20:00,
2013-05-23 08:35:00,71.6,67.0,30.02,West,260,4.0,6.0,85,0.00,,,0.00,weatherlink.com 1.10,2013-05-23 13:35:00,
2013-05-23 08:50:00,72.1,67.0,30.03,WNW,299,3.0,8.0,85,0.00,,,0.00,weatherlink.com 1.10,2013-05-23 13:50:00,
2013-05-23 09:05:00,72.7,67.0,30.02,WNW,293,2.0,9.0,83,0.00,,,0.00,weatherlink.com 1.10,2013-05-23 14:05:00,
2013-05-23 09:20:00,73.8,68.0,30.02,WNW,294,1.0,9.0,81,0.00,,,0.00,weatherlink.com 1.10,2013-05-23 14:20:00,
2013-05-23 09:35:00,74.4,68.0,30.02,WNW,299,3.0,6.0,80,0.00,,,0.00,weatherlink.com 1.10,2013-05-23 14:35:00,
2013-05-23 09:50:00,75.3,67.0,30.02,West,278,2.0,5.0,76,0.00,,,0.00,weatherlink.com 1.10,2013-05-23 14:50:00,
2013-05-23 10:05:00,76.4,68.0,30.02,West,281,3.0,8.0,74,0.00,,,0.00,weatherlink.com 1.10,2013-05-23 15:05:00,
2013-05-23 10:20:00,76.5,67.0,30.02,WNW,300,2.0,8.0,73,0.00,,,0.00,weatherlink.com 1.10,2013-05-23 15:20:00,
2013-05-23 10:35:00,76.5,68.0,30.02,NNW,334,3.0,7.0,74,0.00,,,0.00,weatherlink.com 1.10,2013-05-23 15:35:00,
2013-05-23 10:50:00,77.4,69.0,30.02,West,263,3.0,10.0,75,0.00,,,0.00,weatherlink.com 1.10,2013-05-23 15:50:00,
2013-05-23 11:05:00,77.5,68.0,30.02,NW,318,4.0,9.0,73,0.00,,,0.00,weatherlink.com 1.10,2013-05-23 16:05:00,
2013-05-23 11:20:00,77.7,67.0,30.01,West,267,5.0,8.0,69,0.00,,,0.00,weatherlink.com 1.10,2013-05-23 16:20:00,
2013-05-23 11:35:00,78.4,67.0,30.01,West,276,3.0,13.0,69,0.00,,,0.00,weatherlink.com 1.10,2013-05-23 16:35:00,
2013-05-23 11:50:00,78.7,65.0,30.01,West,264,4.0,10.0,64,0.00,,,0.00,weatherlink.com 1.10,2013-05-23 16:50:00,
2013-05-23 12:05:00,79.2,65.0,30.01,West,271,7.0,10.0,63,0.00,,,0.00,weatherlink.com 1.10,2013-05-23 17:05:00,
2013-05-23 12:20:00,79.4,68.0,30.01,WNW,291,4.0,9.0,69,0.00,,,0.00,weatherlink.com 1.10,2013-05-23 17:20:00,
2013-05-23 12:35:00,78.9,64.0,30.01,West,264,5.0,13.0,61,0.00,,,0.00,weatherlink.com 1.10,2013-05-23 17:35:00,
2013-05-23 12:50:00,79.6,65.0,30.02,West,280,4.0,12.0,61,0.00,,,0.00,weatherlink.com 1.10,2013-05-23 17:50:00,
2013-05-23 13:05:00,80.1,64.0,30.01,WNW,294,6.0,15.0,58,0.00,,,0.00,weatherlink.com 1.10,2013-05-23 18:05:00,
2013-05-23 13:20:00,80.7,64.0,30.01,WNW,286,2.0,11.0,58,0.00,,,0.00,weatherlink.com 1.10,2013-05-23 18:20:00,
2013-05-23 13:35:00,80.3,64.0,30.01,NW,318,3.0,10.0,58,0.00,,,0.00,weatherlink.com 1.10,2013-05-23 18:35:00,
2013-05-23 13:50:00,80.5,63.0,30.01,WNW,288,8.0,13.0,55,0.00,,,0.00,weatherlink.com 1.10,2013-05-23 18:50:00,
2013-05-23 14:05:00,79.7,62.0,30.01,NW,311,6.0,11.0,55,0.00,,,0.00,weatherlink.com 1.10,2013-05-23 19:05:00,
2013-05-23 14:20:00,80.8,61.0,30.01,WNW,292,4.0,12.0,52,0.00,,,0.00,weatherlink.com 1.10,2013-05-23 19:20:00,
2013-05-23 14:35:00,81.0,61.0,30.01,WSW,241,5.0,13.0,51,0.00,,,0.00,weatherlink.com 1.10,2013-05-23 19:35:00,
2013-05-23 14:50:00,80.8,61.0,30.00,WSW,253,9.0,14.0,51,0.00,,,0.00,weatherlink.com 1.10,2013-05-23 19:50:00,
2013-05-23 15:05:00,80.9,62.0,30.00,WNW,284,4.0,12.0,52,0.00,,,0.00,weatherlink.com 1.10,2013-05-23 20:05:00,
2013-05-23 15:21:00,81.5,63.0,30.00,West,264,8.0,9.0,54,0.00,,,0.00,weatherlink.com 1.10,2013-05-23 20:21:00,
2013-05-23 15:36:00,81.5,60.0,29.99,West,260,6.0,13.0,49,0.00,,,0.00,weatherlink.com 1.10,2013-05-23 20:36:00,
2013-05-23 15:51:00,81.2,62.0,30.00,WSW,255,8.0,11.0,52,0.00,,,0.00,weatherlink.com 1.10,2013-05-23 20:51:00,
2013-05-23 16:21:00,80.0,59.0,30.00,North,352,2.0,10.0,49,0.00,,,0.00,weatherlink.com 1.10,2013-05-23 21:21:00,
2013-05-23 16:36:00,78.9,60.0,30.00,NW,309,2.0,10.0,53,0.00,,,0.00,weatherlink.com 1.10,2013-05-23 21:36:00,
2013-05-23 16:51:00,79.8,62.0,30.00,WNW,297,4.0,9.0,55,0.00,,,0.00,weatherlink.com 1.10,2013-05-23 21:51:00,
2013-05-23 17:06:00,79.2,61.0,30.00,WNW,299,1.0,11.0,54,0.00,,,0.00,weatherlink.com 1.10,2013-05-23 22:06:00,
2013-05-23 17:21:00,78.4,61.0,30.00,WNW,288,1.0,5.0,55,0.00,,,0.00,weatherlink.com 1.10,2013-05-23 22:21:00,
2013-05-23 17:36:00,78.4,60.0,30.00,North,11,1.0,11.0,53,0.00,,,0.00,weatherlink.com 1.10,2013-05-23 22:36:00,
2013-05-23 17:51:00,79.6,60.0,29.99,WNW,298,5.0,8.0,52,0.00,,,0.00,weatherlink.com 1.10,2013-05-23 22:51:00,
2013-05-23 18:06:00,78.7,60.0,29.99,WNW,300,4.0,10.0,52,0.00,,,0.00,weatherlink.com 1.10,2013-05-23 23:06:00,
2013-05-23 18:21:00,78.6,60.0,29.99,WNW,291,4.0,12.0,53,0.00,,,0.00,weatherlink.com 1.10,2013-05-23 23:21:00,
2013-05-23 18:36:00,78.1,59.0,30.00,NW,312,7.0,8.0,53,0.00,,,0.00,weatherlink.com 1.10,2013-05-23 23:36:00,
2013-05-23 18:51:00,76.9,59.0,30.00,NNW,328,5.0,10.0,55,0.00,,,0.00,weatherlink.com 1.10,2013-05-23 23:51:00,
2013-05-23 19:06:00,75.5,60.0,30.01,West,276,2.0,7.0,58,0.00,,,0.00,weatherlink.com 1.10,2013-05-24 00:06:00,
2013-05-23 19:21:00,74.9,60.0,30.00,WNW,302,3.0,8.0,60,0.00,,,0.00,weatherlink.com 1.10,2013-05-24 00:21:00,
2013-05-23 19:36:00,74.2,60.0,30.00,NW,318,3.0,4.0,61,0.00,,,0.00,weatherlink.com 1.10,2013-05-24 00:36:00,
2013-05-23 19:51:00,73.3,60.0,30.01,WNW,286,0.0,3.0,63,0.00,,,0.00,weatherlink.com 1.10,2013-05-24 00:51:00,
2013-05-23 20:06:00,72.6,61.0,30.01,NW,305,0.0,3.0,66,0.00,,,0.00,weatherlink.com 1.10,2013-05-24 01:06:00,
2013-05-23 20:21:00,72.0,60.0,30.01,WNW,285,0.0,5.0,67,0.00,,,0.00,weatherlink.com 1.10,2013-05-24 01:21:00,
2013-05-23 20:36:00,71.6,60.0,30.02,West,277,0.0,5.0,68,0.00,,,0.00,weatherlink.com 1.10,2013-05-24 01:36:00,
2013-05-23 20:51:00,70.9,60.0,30.02,West,281,0.0,4.0,69,0.00,,,0.00,weatherlink.com 1.10,2013-05-24 01:51:00,
2013-05-23 21:06:00,70.4,60.0,30.02,West,277,0.0,2.0,70,0.00,,,0.00,weatherlink.com 1.10,2013-05-24 02:06:00,
2013-05-23 21:21:00,69.4,60.0,30.03,NW,321,0.0,2.0,73,0.00,,,0.00,weatherlink.com 1.10,2013-05-24 02:21:00,
2013-05-23 21:36:00,68.9,60.0,30.03,NW,321,1.0,6.0,73,0.00,,,0.00,weatherlink.com 1.10,2013-05-24 02:36:00,
2013-05-23 21:51:00,69.4,59.0,30.04,North,353,3.0,8.0,70,0.00,,,0.00,weatherlink.com 1.10,2013-05-24 02:51:00,
2013-05-23 22:06:00,69.4,58.0,30.04,NNW,347,4.0,10.0,68,0.00,,,0.00,weatherlink.com 1.10,2013-05-24 03:06:00,
2013-05-23 22:21:00,68.7,58.0,30.05,North,353,1.0,4.0,69,0.00,,,0.00,weatherlink.com 1.10,2013-05-24 03:21:00,
2013-05-23 22:36:00,68.0,58.0,30.05,NW,319,1.0,4.0,71,0.00,,,0.00,weatherlink.com 1.10,2013-05-24 03:36:00,
2013-05-23 22:51:00,67.7,58.0,30.06,NNW,338,4.0,7.0,71,0.00,,,0.00,weatherlink.com 1.10,2013-05-24 03:51:00,
2013-05-23 23:06:00,67.1,58.0,30.06,NNW,333,0.0,5.0,72,0.00,,,0.00,weatherlink.com 1.10,2013-05-24 04:06:00,
2013-05-23 23:21:00,66.5,58.0,30.07,NNW,330,0.0,3.0,74,0.00,,,0.00,weatherlink.com 1.10,2013-05-24 04:21:00,
2013-05-23 23:36:00,65.8,58.0,30.07,NW,314,1.0,3.0,75,0.00,,,0.00,weatherlink.com 1.10,2013-05-24 04:36:00,
2013-05-23 23:51:00,65.2,57.0,30.08,NNW,338,1.0,2.0,76,0.00,,,0.00,weatherlink.com 1.10,2013-05-24 04:51:00,